Location: Góry Miechowskie
(50.3599°N, 20.1803°E)
Time: 16:02:05
(UTC+00:00)

Courier 1B Rocket - Pass Details

Date: 13 September 2024
Orbit: 920 x 1201 km, 28.3° (Epoch: 11 October)

Event Time Altitude Azimuth Distance (km) Brightness Sun altitude
Rises 18:11:45 0° 236° (SW) 3,909 8.7 -12.4°
Reaches altitude 10° 18:17:24 10° 201° (SSW) 3,025 7.6 -13.3°
Maximum altitude 18:18:57 11° 189° (S) 2,989 7.4 -13.5°
Drops below altitude 10° 18:20:30 10° 177° (S) 3,058 7.3 -13.7°
Enters shadow 18:23:23 - 157° (SSE) 3,432 7.4 -14.2°
Sets 18:26:24 0° 143° (SE) 4,068 - -14.6°
